Flag for U.S.A. Weather past 2 weeks in Sandpoint, Idaho, U.S.A.

Now
32 °F

Light snow. More clouds than sun.


Feels Like: 23 °F
Forecast: 25 / 34 °F
Wind: 12 mph from Northeast

Location: Sandpoint Airport

Current Time: Dec 28, 2014 at 1:37:30 PM

Latest Report: Dec 28, 2014 at 12:55 PM


Visibility: 2 mi

Pressure: 30.05 "Hg

Humidity: 93%

Dew point: 30 °F

Location of SandpointLocation

Historic Weather in Sandpoint — Graph

°F

Sandpoint temperature yesterday

Maximum temperature yesterday: 32 °F (at 8:15 AM)
Minimum temperature yesterday: 30 °F (at 12:15 AM)
Average temperature yesterday: 31 °F

Past Weeks' High & Low Weather Summary

 TemperatureHumidityPressure
High48 °F (Dec 21, 2:15 PM)100% (Dec 13, 5:55 PM)30.36 "Hg (Dec 13, 5:55 PM)
Low21 °F (Dec 26, 7:15 AM)49% (Dec 22, 12:55 PM)29.46 "Hg (Dec 21, 1:15 AM)
Average33 °F94%30.01 "Hg
* Reported Dec 13 12:15 PM — Dec 28 12:15 PM, Sandpoint, Weather by CustomWeather, © 2014

Note: Actual official high and low records may vary slightly from our data, if they occured in-between our weather recording intervals... More about our weather records

Advertising

Sandpoint weather history for previous 24 hours

 ConditionsComfort  
Time TempWeatherWind HumidityBarometerVisibility
12:15 PM
Dec 28
32 °FLight snow. Overcast.No wind100%30.05 "Hg1 mi
11:55 AM32 °FLight snow. Overcast.No wind100%30.05 "Hg1 mi
11:35 AM32 °FLight snow. Overcast.No wind100%30.05 "Hg2 mi
11:15 AM32 °FLight snow. Overcast.No wind100%30.04 "Hg2 mi
10:55 AM32 °FLight snow. Overcast.No wind100%30.04 "Hg2 mi
10:35 AM32 °FLight snow. Mostly cloudy.No wind100%30.04 "Hg4 mi
10:15 AM32 °FLight snow. Overcast.No wind100%30.04 "Hg10 mi
9:55 AM30 °FLight snow. More clouds than sun.No wind100%30.04 "Hg4 mi
9:35 AM30 °FLight snow. More clouds than sun.No wind100%30.04 "Hg1 mi
9:15 AM30 °FLight snow. Overcast.No wind100%30.03 "Hg1 mi
8:55 AM30 °FLight snow. Cloudy.No wind100%30.02 "Hg5 mi
8:35 AM30 °FLight snow. Overcast.No wind100%30.01 "Hg7 mi
8:15 AM30 °FMostly cloudy.No wind100%30.00 "Hg10 mi
7:55 AM32 °FMore clouds than sun.No wind93%29.99 "Hg10 mi
7:35 AM30 °FOvercast.No wind100%29.98 "Hg10 mi
7:15 AM32 °FOvercast.No wind100%29.98 "Hg10 mi
6:55 AM30 °FOvercast.No wind100%29.97 "Hg10 mi
6:35 AM32 °FOvercast.No wind100%29.97 "Hg10 mi
6:15 AM32 °FLight snow. Overcast.5 mph100%29.96 "Hg10 mi
5:55 AM32 °FLight snow. Overcast.5 mph100%29.95 "Hg7 mi
5:35 AM32 °FLight snow. Overcast.3 mph100%29.94 "Hg5 mi
5:15 AM32 °FLight snow. Overcast.3 mph100%29.94 "Hg7 mi
4:55 AM32 °FOvercast.6 mph100%29.93 "Hg7 mi
4:35 AM32 °FLight snow. Overcast.5 mph100%29.92 "Hg7 mi
4:15 AM32 °FLight snow. Overcast.5 mph100%29.92 "Hg5 mi
3:55 AM32 °FLight snow. Overcast.5 mph100%29.91 "Hg5 mi
3:35 AM32 °FLight snow. Overcast.3 mph100%29.91 "Hg5 mi
3:15 AM32 °FLight snow. Overcast.5 mph100%29.90 "Hg5 mi
2:55 AM32 °FLight snow. Overcast.3 mph100%29.90 "Hg4 mi
2:35 AM32 °FLight snow. Overcast.5 mph100%29.90 "Hg3 mi
2:15 AM32 °FLight snow. Overcast.No wind100%29.90 "Hg5 mi
1:55 AM32 °FLight snow. Low clouds.No wind100%29.89 "Hg4 mi
1:35 AM32 °FLight snow. Low clouds.No wind100%29.88 "Hg5 mi
1:15 AM32 °FLow clouds.No wind100%29.88 "Hg7 mi
12:55 AM32 °FLight snow. Low clouds.No wind100%29.88 "Hg5 mi
12:35 AM32 °FLow clouds.3 mph100%29.87 "Hg10 mi
12:15 AM32 °FLow clouds.No wind100%29.86 "Hg7 mi
11:55 PM
Dec 27
32 °FIce fog.No wind100%29.86 "Hg4 mi
11:35 PM32 °FIce fog.No wind100%29.85 "Hg3 mi
11:15 PM32 °FIce fog.No wind100%29.85 "Hg3 mi
10:55 PM32 °FIce fog.No wind100%29.85 "Hg2 mi
10:35 PM32 °FDrizzle. Mostly cloudy.No wind100%29.85 "Hg2 mi
10:15 PM32 °FLight snow. Low clouds.No wind100%29.85 "Hg2 mi
9:55 PM32 °FLight snow. Mostly cloudy.No wind100%29.85 "Hg2 mi
9:35 PM32 °FLight snow. Low clouds.No wind100%29.85 "Hg2 mi
9:15 PM32 °FLight snow. Low clouds.No wind100%29.85 "Hg3 mi
8:55 PM32 °FLight snow. Low clouds.No wind100%29.85 "Hg2 mi
8:35 PM32 °FLight snow. Low clouds.No wind100%29.86 "Hg1 mi
8:15 PM32 °FLight snow. Low clouds.No wind100%29.87 "Hg1 mi
7:35 PM32 °FLight snow. Overcast.No wind100%29.88 "Hg2 mi
7:15 PM32 °FLight snow. Overcast.No wind100%29.88 "Hg7 mi
6:55 PM32 °FLight snow. Mostly cloudy.No wind100%29.89 "Hg2 mi
6:15 PM32 °FSnow. Low clouds.No wind100%29.89 "Hg1 mi
5:55 PM32 °FSnow. Low clouds.No wind100%29.90 "Hg1 mi
5:35 PM32 °FLight snow. Mostly cloudy.No wind100%29.90 "Hg2 mi
5:15 PM32 °FLight snow. Overcast.No wind100%29.91 "Hg1 mi
4:55 PM32 °FSnow. Low clouds.No wind100%29.92 "Hg1 mi
4:35 PM32 °FSnow. Overcast.No wind100%29.92 "Hg1 mi
4:15 PM32 °FLight snow. Mostly cloudy.No wind100%29.94 "Hg1 mi
3:55 PM32 °FLight snow. Overcast.No wind100%29.94 "Hg1 mi
3:35 PM32 °FLight snow. Low clouds.No wind100%29.95 "Hg1 mi
3:15 PM32 °FSnow. Low clouds.No wind100%29.96 "Hg1 mi
2:55 PM32 °FSnow. Low clouds.No wind100%29.97 "Hg1 mi
2:35 PM32 °FSnow. Low clouds.No wind100%29.98 "Hg1 mi
2:15 PM32 °FSnow. Low clouds.No wind100%29.99 "Hg1 mi
1:55 PM32 °FSnow. Low clouds.No wind100%30.01 "Hg1 mi
1:35 PM32 °FLight snow. Overcast.No wind100%30.02 "Hg1 mi
1:15 PM32 °FLight snow. Mostly cloudy.3 mph100%30.03 "Hg1 mi
Weather by CustomWeather, © 2014

See weather overviewHow to use our weather pages